GW5357 Weather Reports


Display with metric or nautical units.
time (UTC)temp
F
wind
direction
speed
MPH
gust
MPH
rain 1hr
in
rain 24hr
in
rain mn
in
humidity
%
barometer
mb
20260905211504 70 181 3.0 6.0 0.00 0.00 0.00 63 1017.6
20260905211004 70 135 3.0 6.0 0.00 0.00 0.00 63 1017.5
20260905210503 69 46 2.0 7.0 0.00 0.00 0.00 64 1017.6
20260905210006 70 187 2.0 6.0 0.00 0.00 0.00 63 1017.6
20260905205505 70 206 2.0 7.0 0.00 0.00 0.00 64 1017.5
20260905205006 69 223 2.0 7.0 0.00 0.00 0.00 66 1017.6
20260905204004 68 115 3.0 6.0 0.00 0.00 0.00 69 1017.7
20260905203504 67 119 3.0 7.0 0.00 0.00 0.00 70 1017.7
20260905202003 67 208 5.0 8.0 0.00 0.00 0.00 70 1017.8
20260905201504 67 269 3.0 7.0 0.00 0.00 0.00 71 1017.8
20260905201004 67 213 3.0 9.0 0.00 0.00 0.00 71 1017.8
20260905200503 67 206 3.0 9.0 0.00 0.00 0.00 71 1017.8
20260905200008 66 290 2.0 7.0 0.00 0.00 0.00 72 1017.8
20260905195503 66 107 3.0 7.0 0.00 0.00 0.00 72 1017.8
20260905195004 67 206 1.0 6.0 0.00 0.00 0.00 71 1017.9
20260905194505 66 32 3.0 8.0 0.00 0.00 0.00 72 1017.8
20260905194005 66 46 2.0 8.0 0.00 0.00 0.00 73 1017.8
20260905193503 66 161 3.0 8.0 0.00 0.00 0.00 72 1017.9
20260905193006 66 170 1.0 8.0 0.00 0.00 0.00 72 1017.9
20260905192003 65 178 2.0 6.0 0.00 0.00 0.00 75 1017.9
20260905191505 66 269 3.0 5.0 0.00 0.00 0.00 74 1018.0
20260905191004 65 135 2.0 7.0 0.00 0.00 0.00 76 1017.9
20260905190504 65 79 2.0 7.0 0.00 0.00 0.00 75 1018.0
20260905190008 64 269 2.0 8.0 0.00 0.00 0.00 75 1018.0
20260905185502 65 223 3.0 8.0 0.00 0.00 0.00 75 1018.1
20260905185003 65 190 3.0 6.0 0.00 0.00 0.00 74 1018.1
20260905184503 65 117 2.0 5.0 0.00 0.00 0.00 75 1018.1
20260905184003 65 285 2.0 5.0 0.00 0.00 0.00 75 1018.0
20260905183503 64 145 2.0 5.0 0.00 0.00 0.00 77 1018.1
20260905183004 63 303 2.0 5.0 0.00 0.00 0.00 77 1018.2
20260905182002 64 269 2.0 6.0 0.00 0.00 0.00 77 1018.3
20260905181503 63 1 1.0 6.0 0.00 0.00 0.00 78 1018.4
20260905181003 63 188 2.0 6.0 0.00 0.00 0.00 78 1018.4
20260905180007 63 46 2.0 5.0 0.00 0.00 0.00 79 1018.3
20260905174503 62 290 2.0 5.0 0.00 0.00 0.00 79 1018.3
20260905174003 62 214 2.0 5.0 0.00 0.00 0.00 79 1018.3
20260905173503 62 130 2.0 6.0 0.00 0.00 0.00 80 1018.2
20260905172503 62 157 3.0 6.0 0.00 0.00 0.00 80 1018.1
20260905172003 62 318 2.0 4.0 0.00 0.00 0.00 82 1018.2
20260905171504 61 132 2.0 4.0 0.00 0.00 0.00 84 1018.2
20260905171003 60 185 2.0 4.0 0.00 0.00 0.00 85 1018.2
20260905170502 59 283 1.0 3.0 0.00 0.00 0.00 85 1018.3
20260905165502 59 314 1.0 3.0 0.00 0.00 0.00 86 1018.3
20260905164503 59 89 2.0 4.0 0.00 0.00 0.00 86 1018.2
20260905164004 59 28 1.0 3.0 0.00 0.00 0.00 87 1018.1
20260905163502 58 303 1.0 3.0 0.00 0.00 0.00 87 1018.1
20260905163003 58 331 2.0 4.0 0.00 0.00 0.00 87 1018.3
20260905162503 58 269 2.0 4.0 0.00 0.00 0.00 87 1018.3
20260905162003 58 223 1.0 2.0 0.00 0.00 0.00 89 1018.2
20260905161503 58 269 1.0 4.0 0.00 0.00 0.00 90 1018.3
20260905161002 58 269 2.0 4.0 0.00 0.00 0.00 90 1018.3
20260905160503 58 314 1.0 4.0 0.00 0.00 0.00 90 1018.4
20260905155502 58 283 2.0 3.0 0.00 0.00 0.00 90 1018.2
20260905154504 57 131 1.0 3.0 0.00 0.00 0.00 91 1018.2
20260905154003 57 156 1.0 3.0 0.00 0.00 0.00 92 1018.1
20260905153502 57 135 1.0 3.0 0.00 0.00 0.00 92 1018.0
20260905153003 57 296 1.0 2.0 0.00 0.00 0.00 93 1017.9
20260905152502 57 269 1.0 3.0 0.00 0.00 0.00 93 1017.9
20260905152004 57 213 1.0 3.0 0.00 0.00 0.00 93 1018.0
20260905151504 57 142 2.0 3.0 0.00 0.00 0.00 93 1018.0
20260905151002 56 135 1.0 3.0 0.00 0.00 0.00 93 1018.0
20260905150503 56 241 2.0 3.0 0.00 0.00 0.00 94 1018.0
20260905150003 56 300 1.0 2.0 0.00 0.00 0.00 94 1018.0
20260905145504 56 283 1.0 2.0 0.00 0.00 0.00 94 1018.1
20260905145003 55 1 0.0 1.0 0.00 0.00 0.00 94 1018.1
20260905144504 55 269 0.0 2.0 0.00 0.00 0.00 94 1018.2
20260905144003 55 206 0.0 2.0 0.00 0.00 0.00 94 1018.2
20260905143503 54 314 1.0 2.0 0.00 0.00 0.00 94 1018.1
20260905143005 54 1 1.0 2.0 0.00 0.00 0.00 94 1018.2
20260905142003 54 331 1.0 2.0 0.00 0.00 0.00 93 1018.0
20260905141504 54 331 1.0 2.0 0.00 0.00 0.00 93 1018.0
20260905141003 54 314 1.0 2.0 0.00 0.00 0.00 93 1017.9
20260905140502 54 321 1.0 2.0 0.00 0.00 0.00 93 1017.8
20260905135003 54 324 1.0 2.0 0.00 0.00 0.00 93 1017.8
20260905134502 54 1 1.0 2.0 0.00 0.00 0.00 93 1017.8
20260905134003 54 135 1.0 2.0 0.00 0.00 0.00 93 1017.8
20260905133003 54 161 1.0 2.0 0.00 0.00 0.00 93 1017.7
20260905132502 54 46 1.0 2.0 0.00 0.00 0.00 93 1017.7
20260905132003 54 223 0.0 2.0 0.00 0.00 0.00 93 1017.6
20260905131503 54 20 1.0 2.0 0.00 0.00 0.00 93 1017.7
20260905130503 54 46 1.0 2.0 0.00 0.00 0.00 93 1017.6
20260905130002 54 314 1.0 2.0 0.00 0.00 0.00 93 1017.6
20260905124502 54 286 0.0 2.0 0.00 0.00 0.00 93 1017.6
20260905124002 54 319 1.0 2.0 0.00 0.00 0.00 94 1017.6
20260905123502 54 20 1.0 2.0 0.00 0.00 0.00 94 1017.6
20260905123003 54 46 0.0 1.0 0.00 0.00 0.00 94 1017.5
20260905122502 54 269 0.0 1.0 0.00 0.00 0.00 94 1017.5
20260905121502 53 152 0.0 1.0 0.00 0.00 0.00 93 1017.5
20260905121003 53 269 0.0 1.0 0.00 0.00 0.00 93 1017.5
20260905120502 53 46 0.0 2.0 0.00 0.00 0.00 93 1017.4
20260905120004 53 324 1.0 2.0 0.00 0.00 0.00 93 1017.4
20260905115502 53 324 1.0 2.0 0.00 0.00 0.00 93 1017.4
20260905114505 53 344 1.0 2.0 0.00 0.00 0.00 93 1017.3
20260905114003 53 336 1.0 2.0 0.00 0.00 0.00 93 1017.4
20260905113503 53 340 1.0 2.0 0.00 0.00 0.00 93 1017.3
20260905113004 53 269 0.0 1.0 0.00 0.00 0.00 93 1017.3
20260905112503 53 1 0.0 2.0 0.00 0.00 0.00 93 1017.3
20260905112004 53 344 1.0 2.0 0.00 0.00 0.00 93 1017.4
20260905111003 53 1 1.0 2.0 0.00 0.00 0.00 93 1017.2
20260905110502 53 331 0.0 1.0 0.00 0.00 0.00 93 1017.1
20260905110003 53 314 0.0 2.0 0.00 0.00 0.00 93 1017.2
20260905105503 53 269 1.0 2.0 0.00 0.00 0.00 93 1017.1
20260905105002 53 321 1.0 2.0 0.00 0.00 0.00 93 1017.1
20260905104503 53 1 1.0 2.0 0.00 0.00 0.00 93 1017.0
20260905104003 53 89 1.0 2.0 0.00 0.00 0.00 93 1017.0
20260905103502 53 46 0.0 1.0 0.00 0.00 0.00 93 1017.1
20260905103003 53 135 0.0 1.0 0.00 0.00 0.00 93 1017.0
20260905102503 53 46 0.0 1.0 0.00 0.00 0.00 93 1017.1
20260905101503 53 314 0.0 2.0 0.00 0.00 0.00 93 1017.1
20260905101002 53 324 1.0 2.0 0.00 0.00 0.00 93 1017.1
20260905100502 53 314 0.0 1.0 0.00 0.00 0.00 93 1017.0
20260905100003 54 178 0.0 1.0 0.00 0.00 0.00 93 1017.0
20260905094503 54 269 1.0 2.0 0.00 0.00 0.00 92 1016.9
20260905094002 54 340 1.0 2.0 0.00 0.00 0.00 93 1017.0
20260905093501 54 327 2.0 2.0 0.00 0.00 0.00 93 1017.0
20260905093004 54 331 1.0 2.0 0.00 0.00 0.00 92 1017.0
20260905092502 54 1 1.0 2.0 0.00 0.00 0.00 92 1017.0
20260905092003 54 314 0.0 2.0 0.00 0.00 0.00 92 1016.9
20260905091503 54 314 0.0 2.0 0.00 0.00 0.00 92 1017.0
20260905091003 54 324 1.0 2.0 0.00 0.00 0.00 92 1016.9
20260905090502 54 331 1.0 2.0 0.00 0.00 0.00 92 1016.9
20260905085002 54 324 1.0 1.0 0.00 0.00 0.00 92 1016.8
20260905084503 54 360 1.0 2.0 0.00 0.00 0.00 92 1016.8
20260905083502 54 340 1.0 2.0 0.00 0.00 0.00 92 1016.6
20260905083003 54 327 1.0 2.0 0.00 0.00 0.00 92 1016.6
20260905082503 54 340 1.0 2.0 0.00 0.00 0.00 91 1016.6
20260905082001 54 269 0.0 1.0 0.00 0.00 0.00 91 1016.7
20260905081003 54 314 1.0 2.0 0.00 0.00 0.00 91 1016.8
20260905080502 54 314 1.0 2.0 0.00 0.00 0.00 91 1016.9
20260905080007 55 314 1.0 2.0 0.00 0.00 0.00 91 1016.8
20260905075503 55 331 1.0 2.0 0.00 0.00 0.00 91 1016.7
20260905075003 55 314 0.0 1.0 0.00 0.00 0.00 91 1016.8
20260905074502 55 1 1.0 1.0 0.00 0.00 0.00 91 1016.8
20260905074002 55 46 0.0 2.0 0.00 0.00 0.00 91 1016.9
20260905073003 55 331 1.0 2.0 0.00 0.00 0.00 91 1016.8
20260905072502 55 340 1.0 2.0 0.00 0.00 0.00 91 1016.8
20260905072003 55 331 1.0 2.0 0.00 0.00 0.00 91 1016.8
20260905071502 55 286 0.0 1.0 0.00 0.00 0.00 90 1016.7
20260905071003 55 1 0.0 1.0 0.00 0.00 0.00 90 1016.7
20260905070502 55 1 1.0 1.0 0.00 0.00 0.00 90 1016.6
20260905065504 56 46 0.0 2.0 0.00 0.00 0.00 90 1016.6
20260905064505 56 135 0.0 2.0 0.00 0.00 0.00 90 1016.4
20260905064004 56 324 1.0 2.0 0.00 0.00 0.00 90 1016.4
20260905063504 56 314 0.0 2.0 0.00 0.00 0.00 90 1016.3
20260905063006 56 321 1.0 2.0 0.00 0.00 0.00 89 1016.3
20260905062504 56 1 0.0 1.0 0.00 0.00 0.00 90 1016.4
20260905062004 56 46 0.0 2.0 0.00 0.00 0.00 90 1016.4
20260905061505 56 89 1.0 2.0 0.00 0.00 0.00 90 1016.4
20260905061005 56 46 0.0 2.0 0.00 0.00 0.00 89 1016.4
20260905060504 56 324 1.0 2.0 0.00 0.00 0.00 89 1016.4
20260905055504 56 46 0.0 2.0 0.00 0.00 0.00 89 1016.4
20260905054505 56 344 1.0 2.0 0.00 0.00 0.00 89 1016.3
20260905054005 56 1 1.0 2.0 0.00 0.00 0.00 89 1016.3
20260905053503 56 340 1.0 2.0 0.00 0.00 0.00 89 1016.4
20260905053006 56 331 0.0 2.0 0.00 0.00 0.00 89 1016.4
20260905052503 56 46 1.0 2.0 0.00 0.00 0.00 89 1016.5
20260905052005 56 321 1.0 2.0 0.00 0.00 0.00 89 1016.5
20260905051505 57 28 0.0 2.0 0.00 0.00 0.00 89 1016.5
20260905051005 57 324 0.0 2.0 0.00 0.00 0.00 88 1016.6
20260905050504 57 1 1.0 2.0 0.00 0.00 0.00 88 1016.6
20260905050007 57 135 0.0 2.0 0.00 0.00 0.00 88 1016.5
20260905045504 57 331 1.0 2.0 0.00 0.00 0.00 88 1016.5
20260905045006 57 344 0.0 2.0 0.00 0.00 0.00 88 1016.6
20260905044505 57 1 1.0 2.0 0.00 0.00 0.00 88 1016.6
20260905043005 57 46 0.0 1.0 0.00 0.00 0.00 87 1016.5
20260905042004 57 269 0.0 1.0 0.00 0.00 0.00 87 1016.5
20260905041005 57 46 0.0 1.0 0.00 0.00 0.00 86 1016.4
20260905040504 57 152 0.0 1.0 0.00 0.00 0.00 86 1016.4
20260905040008 57 135 1.0 2.0 0.00 0.00 0.00 85 1016.4
20260905034005 58 46 0.0 2.0 0.00 0.00 0.00 82 1016.3
20260905033007 59 296 0.0 1.0 0.00 0.00 0.00 81 1016.3
20260905032505 59 1 0.0 1.0 0.00 0.00 0.00 81 1016.3
20260905032005 59 1 0.0 1.0 0.00 0.00 0.00 81 1016.2
20260905031504 60 331 0.0 1.0 0.00 0.00 0.00 81 1016.1
20260905030503 60 117 0.0 2.0 0.00 0.00 0.00 78 1015.9
20260905025504 60 314 1.0 2.0 0.00 0.00 0.00 77 1015.8
20260905024504 61 28 0.0 1.0 0.00 0.00 0.00 75 1015.6
20260905024006 61 1 0.0 2.0 0.00 0.00 0.00 75 1015.6
20260905023504 62 1 1.0 3.0 0.00 0.00 0.00 74 1015.5
20260905023005 62 1 2.0 3.0 0.00 0.00 0.00 73 1015.6
20260905022505 62 303 1.0 2.0 0.00 0.00 0.00 74 1015.6
20260905022005 62 303 1.0 2.0 0.00 0.00 0.00 73 1015.5
20260905021506 63 314 1.0 3.0 0.00 0.00 0.00 72 1015.5
20260905021006 63 314 1.0 2.0 0.00 0.00 0.00 70 1015.4
20260905020505 63 314 1.0 2.0 0.00 0.00 0.00 70 1015.4
20260905020008 63 1 0.0 2.0 0.00 0.00 0.00 70 1015.5
20260905015505 64 46 1.0 2.0 0.00 0.00 0.00 68 1015.4
20260905015005 64 89 0.0 2.0 0.00 0.00 0.00 67 1015.4
20260905014005 64 28 1.0 3.0 0.00 0.00 0.00 65 1015.3
20260905013505 65 1 1.0 3.0 0.00 0.00 0.00 66 1015.3
20260905013006 65 349 1.0 3.0 0.00 0.00 0.00 64 1015.3
20260905012004 65 1 1.0 3.0 0.00 0.00 0.00 64 1015.2
20260905011504 65 310 1.0 3.0 0.00 0.00 0.00 63 1015.2
20260905011004 65 35 1.0 3.0 0.00 0.00 0.00 62 1015.2
20260905010503 65 340 2.0 4.0 0.00 0.00 0.00 62 1015.2
20260905010005 66 340 2.0 4.0 0.00 0.00 0.00 62 1015.1
20260905005504 66 20 1.0 3.0 0.00 0.00 0.00 63 1015.1
20260905005004 66 1 1.0 3.0 0.00 0.00 0.00 63 1015.0
20260905004505 66 319 1.0 6.0 0.00 0.00 0.00 63 1014.9
20260905004004 66 1 1.0 6.0 0.00 0.00 0.00 64 1014.9
20260905003505 66 344 2.0 4.0 0.00 0.00 0.00 66 1014.9
20260905003006 66 336 2.0 4.0 0.00 0.00 0.00 67 1014.9
20260905002504 66 340 2.0 4.0 0.00 0.00 0.00 65 1014.9
20260905002005 66 314 2.0 5.0 0.00 0.00 0.00 65 1014.8
20260905001004 66 46 1.0 5.0 0.00 0.00 0.00 66 1014.8
20260905000503 66 269 2.0 5.0 0.00 0.00 0.00 66 1014.8
20260905000006 66 46 1.0 4.0 0.00 0.00 0.00 66 1014.8
20260904235503 65 269 1.0 3.0 0.00 0.00 0.00 67 1014.8
20260904235004 65 46 1.0 3.0 0.00 0.00 0.00 67 1014.8
20260904234504 65 342 2.0 5.0 0.00 0.00 0.00 66 1014.7
20260904234004 65 350 3.0 5.0 0.00 0.00 0.00 66 1014.6
20260904233006 64 314 1.0 5.0 0.00 0.00 0.00 67 1014.7
20260904232503 64 1 3.0 5.0 0.00 0.00 0.00 67 1014.7
20260904232004 64 296 2.0 6.0 0.00 0.00 0.00 66 1014.7
20260904231503 64 341 3.0 7.0 0.00 0.00 0.00 67 1014.7
20260904231003 64 343 2.0 7.0 0.00 0.00 0.00 68 1014.6
20260904230006 64 340 2.0 4.0 0.00 0.00 0.00 68 1014.7
20260904225003 64 303 3.0 7.0 0.00 0.00 0.00 69 1014.7
20260904224503 64 276 3.0 6.0 0.00 0.00 0.00 68 1014.7
20260904224003 65 258 3.0 6.0 0.00 0.00 0.00 66 1014.7
20260904223003 65 300 2.0 7.0 0.00 0.00 0.00 67 1014.7
20260904222005 65 318 3.0 8.0 0.00 0.00 0.00 63 1014.7
20260904221004 65 20 4.0 8.0 0.00 0.00 0.00 64 1014.6
20260904220503 66 314 3.0 8.0 0.00 0.00 0.00 63 1014.7
20260904220004 66 353 2.0 7.0 0.00 0.00 0.00 64 1014.6
20260904215503 66 331 2.0 7.0 0.00 0.00 0.00 63 1014.6
20260904215005 67 300 3.0 7.0 0.00 0.00 0.00 62 1014.6
20260904214503 67 336 3.0 7.0 0.00 0.00 0.00 62 1014.6
20260904214004 67 286 2.0 6.0 0.00 0.00 0.00 62 1014.5
20260904213004 68 314 3.0 8.0 0.00 0.00 0.00 63 1014.5
20260904212504 67 223 4.0 8.0 0.00 0.00 0.00 63 1014.5